Date String (YYYY-MM-DD hh:mm:ss) UTC,Instrument flags,absolute air pressure of the measurement (hPa),sample flow rate (lpm),inlet stack bypass flow (lpm),air temperature of the measurement (°C),ambient temperature measured by the external sensor (°C),aerosol sample conditioner tube jacket temperature (°C),OPC LED temperature (°C),internal box temperature (°C),relative humidity of the measurement (%),span deviation,mass concentration of particles derived from Lorenz-Mie calculation of OPC scattering (μg/m³),mass concentration of particles derived from Lorenz-Mie calculation of OPC scattering (μg/m³),mass concentration of particles derived from Lorenz-Mie calculation of OPC scattering (μg/m³)
DateTimeUTC,F1_M11,P_M11,Q1_M11,Q2_M11,T1_M11,T2_M11,T3_M11,T4_M11,T5_M11,U1_M11,ZSPAN_M11,X2_M11,X0_M11,X1_M11
2023-10-06 07:00:00,SystemResetWarning,0837.4,5.00,000.00,029.1,027.5,000.0,037.6,030.7,15.8,0000.0,0003.85,0010.71,0003.01
2023-10-06 07:01:00,SystemResetWarning,0837.4,5.00,000.00,029.1,027.5,000.0,037.6,030.6,15.8,0000.0,0003.81,0011.07,0003.02
2023-10-06 07:02:00,SystemResetWarning,0837.4,4.99,000.00,029.1,027.5,000.0,037.6,030.7,15.8,0000.0,0003.78,0011.97,0003.02
2023-10-06 07:03:00,SystemResetWarning,0837.3,5.00,000.00,029.0,027.5,000.0,037.5,030.7,15.8,0000.0,0003.80,0012.85,0003.03
2023-10-06 07:04:00,SystemResetWarning,0837.3,5.00,000.00,029.0,027.5,000.0,037.5,030.7,15.8,0000.0,0003.81,0013.86,0003.06
2023-10-06 07:05:00,SystemResetWarning,0837.3,5.00,000.00,029.0,027.5,000.0,037.5,030.6,15.8,0000.0,0003.81,0014.94,0003.07
2023-10-06 07:06:00,SystemResetWarning,0837.2,5.00,000.00,029.0,027.5,000.0,037.5,030.6,15.8,0000.0,0003.81,0014.55,0003.06
2023-10-06 07:07:00,SystemResetWarning,0837.2,5.00,000.00,029.0,027.5,000.0,037.5,030.6,15.8,0000.0,0003.80,0014.22,0003.06
2023-10-06 07:08:00,SystemResetWarning,0837.2,5.00,000.00,029.0,027.5,000.0,037.5,030.6,15.8,0000.0,0003.78,0013.62,0003.06
2023-10-06 07:09:00,SystemResetWarning,0837.3,5.00,000.00,029.0,027.5,000.0,037.5,030.6,15.8,0000.0,0003.76,0013.22,0003.06
2023-10-06 07:10:00,SystemResetWarning,0837.3,5.00,000.00,029.0,027.5,000.0,037.5,030.6,15.8,0000.0,0003.76,0013.69,0003.07
2023-10-06 07:11:00,SystemResetWarning,0837.2,5.00,000.00,029.0,027.5,000.0,037.5,030.6,15.8,0000.0,0003.80,0014.09,0003.08
2023-10-06 07:12:00,SystemResetWarning,0837.2,5.00,000.00,029.0,027.5,000.0,037.5,030.6,15.8,0000.0,0003.83,0013.95,0003.07
2023-10-06 07:13:00,SystemResetWarning,0837.3,5.00,000.00,029.0,027.5,000.0,037.5,030.6,15.8,0000.0,0003.82,0014.05,0003.07
2023-10-06 07:14:00,SystemResetWarning,0837.2,5.01,000.00,029.0,027.5,000.0,037.5,030.6,15.8,0000.0,0003.81,0012.93,0003.08
2023-10-06 07:15:00,SystemResetWarning,0837.3,5.00,000.00,029.0,027.5,000.0,037.5,030.6,15.8,0000.0,0003.84,0012.61,0003.07
2023-10-06 07:16:00,SystemResetWarning,0837.4,5.00,000.00,029.0,027.5,000.0,037.5,030.6,15.8,0000.0,0003.87,0013.04,0003.05
2023-10-06 07:17:00,SystemResetWarning,0837.4,5.00,000.00,029.0,027.5,000.0,037.5,030.6,15.8,0000.0,0003.87,0013.96,0003.07
2023-10-06 07:18:00,SystemResetWarning,0837.4,5.01,000.00,029.0,027.5,000.0,037.5,030.6,15.8,0000.0,0003.88,0014.42,0003.07
2023-10-06 07:19:00,SystemResetWarning,0837.4,5.00,000.00,029.0,027.5,000.0,037.5,030.6,15.8,0000.0,0003.88,0014.47,0003.07
2023-10-06 07:20:00,SystemResetWarning,0837.4,5.00,000.00,029.0,027.5,000.0,037.5,030.6,15.9,0000.0,0003.89,0014.88,0003.07
2023-10-06 07:21:00,SystemResetWarning,0837.5,5.00,000.00,029.0,027.5,000.0,037.5,030.6,15.9,0000.0,0003.91,0014.89,0003.07
2023-10-06 07:22:00,SystemResetWarning,0837.5,5.00,000.00,029.0,027.5,000.0,037.5,030.6,15.9,0000.0,0003.87,0014.69,0003.07
2023-10-06 07:23:00,SystemResetWarning,0837.5,5.00,000.00,029.0,027.5,000.0,037.5,030.6,15.9,0000.0,0003.87,0014.16,0003.05
2023-10-06 07:24:00,SystemResetWarning,0837.6,5.00,000.00,029.0,027.5,000.0,037.5,030.6,15.8,0000.0,0003.90,0013.84,0003.06
2023-10-06 07:25:00,SystemResetWarning,0837.6,5.00,000.00,029.0,027.4,000.0,037.5,030.6,15.8,0000.0,0003.88,0013.77,0003.04
2023-10-06 07:26:00,SystemResetWarning,0837.6,5.00,000.00,029.0,027.4,000.0,037.5,030.6,15.8,0000.0,0003.89,0013.44,0003.04
2023-10-06 07:27:00,SystemResetWarning,0837.6,4.99,000.00,029.0,027.4,000.0,037.5,030.6,15.8,0000.0,0003.85,0011.39,0003.06
2023-10-06 07:28:00,SystemResetWarning,0837.6,5.00,000.00,029.0,027.5,000.0,037.5,030.6,15.9,0000.0,0003.85,0010.61,0003.05
2023-10-06 07:29:00,SystemResetWarning,0837.6,5.01,000.00,029.0,027.4,000.0,037.5,030.6,15.9,0000.0,0003.88,0010.76,0003.05
2023-10-06 07:30:00,SystemResetWarning,0837.8,5.01,000.00,029.0,027.4,000.0,037.5,030.6,15.9,0000.0,0003.89,0011.19,0003.05
2023-10-06 07:31:00,SystemResetWarning,0837.8,5.00,000.00,029.0,027.5,000.0,037.5,030.6,16.0,0000.0,0003.94,0011.88,0003.05
2023-10-06 07:32:00,SystemResetWarning,0837.8,4.99,000.00,029.0,027.5,000.0,037.5,030.6,16.2,0000.0,0003.97,0011.91,0003.06
2023-10-06 07:33:00,SystemResetWarning,0837.7,4.99,000.00,029.0,027.5,000.0,037.5,030.6,16.4,0000.0,0003.98,0012.26,0003.06
2023-10-06 07:34:00,SystemResetWarning,0837.8,5.00,000.00,029.0,027.5,000.0,037.5,030.6,16.4,0000.0,0003.99,0012.63,0003.06
2023-10-06 07:35:00,SystemResetWarning,0837.7,5.00,000.00,029.0,027.5,000.0,037.5,030.6,16.4,0000.0,0004.01,0012.45,0003.07
2023-10-06 07:36:00,SystemResetWarning,0837.7,5.00,000.00,029.0,027.5,000.0,037.4,030.7,16.3,0000.0,0004.02,0012.67,0003.06
2023-10-06 07:37:00,SystemResetWarning,0837.8,5.01,000.00,029.0,027.5,000.0,037.5,030.7,16.3,0000.0,0003.99,0013.12,0003.03
2023-10-06 07:38:00,SystemResetWarning,0837.8,5.00,000.00,029.0,027.5,000.0,037.5,030.7,16.4,0000.0,0004.04,0013.61,0003.02
2023-10-06 07:39:00,SystemResetWarning,0837.8,4.99,000.00,029.0,027.5,000.0,037.5,030.7,16.4,0000.0,0004.02,0013.87,0003.00
2023-10-06 07:40:00,SystemResetWarning,0837.8,4.99,000.00,029.0,027.6,000.0,037.5,030.7,16.3,0000.0,0003.99,0013.17,0003.00
2023-10-06 07:41:00,SystemResetWarning,0837.9,5.00,000.00,029.0,027.6,000.0,037.5,030.7,16.3,0000.0,0004.00,0013.86,0002.98
2023-10-06 07:42:00,SystemResetWarning,0837.9,5.00,000.00,029.0,027.6,000.0,037.5,030.7,16.3,0000.0,0003.96,0013.28,0002.98
2023-10-06 07:43:00,SystemResetWarning,0837.9,5.00,000.00,029.0,027.6,000.0,037.5,030.7,16.3,0000.0,0003.95,0013.06,0002.98
2023-10-06 07:44:00,SystemResetWarning,0837.9,5.00,000.00,029.0,027.6,000.0,037.5,030.7,16.2,0000.0,0003.95,0012.46,0002.99
2023-10-06 07:45:00,SystemResetWarning,0837.9,5.00,000.00,029.0,027.6,000.0,037.5,030.7,16.2,0000.0,0003.92,0011.98,0003.00
2023-10-06 07:46:00,SystemResetWarning,0838.0,5.00,000.00,029.0,027.6,000.0,037.5,030.7,16.2,0000.0,0003.88,0011.79,0002.99
2023-10-06 07:47:00,SystemResetWarning,0838.0,5.00,000.00,029.0,027.6,000.0,037.5,030.7,16.2,0000.0,0003.85,0011.40,0003.01
2023-10-06 07:48:00,SystemResetWarning,0838.0,5.00,000.00,029.0,027.6,000.0,037.5,030.7,16.2,0000.0,0003.80,0011.28,0003.00
2023-10-06 07:49:00,SystemResetWarning,0838.0,5.00,000.00,029.0,027.6,000.0,037.5,030.7,16.2,0000.0,0003.82,0012.02,0003.01
2023-10-06 07:50:00,SystemResetWarning,0838.0,5.00,000.00,029.0,027.6,000.0,037.5,030.7,16.2,0000.0,0003.87,0012.13,0003.04
2023-10-06 07:51:00,SystemResetWarning,0838.0,5.00,000.00,029.0,027.6,000.0,037.5,030.7,16.2,0000.0,0003.87,0012.08,0003.03
2023-10-06 07:52:00,SystemResetWarning,0838.0,5.00,000.00,029.0,027.6,000.0,037.5,030.7,16.3,0000.0,0003.84,0010.83,0003.04
2023-10-06 07:53:00,SystemResetWarning,0837.9,5.01,000.00,029.0,027.6,000.0,037.5,030.7,16.4,0000.0,0003.87,0010.87,0003.04
2023-10-06 07:54:00,SystemResetWarning,0838.0,5.00,000.00,029.0,027.6,000.0,037.5,030.7,16.5,0000.0,0003.86,0010.89,0003.02
2023-10-06 07:55:00,SystemResetWarning,0838.0,4.99,000.00,029.1,027.6,000.0,037.5,030.7,16.7,0000.0,0003.85,0011.34,0003.00
2023-10-06 07:56:00,SystemResetWarning,0838.0,5.00,000.00,029.1,027.6,000.0,037.5,030.7,16.7,0000.0,0003.85,0011.44,0003.00
2023-10-06 07:57:00,SystemResetWarning,0838.0,5.00,000.00,029.1,027.6,000.0,037.5,030.7,16.7,0000.0,0003.86,0011.43,0003.00
2023-10-06 07:58:00,SystemResetWarning,0837.9,5.00,000.00,029.1,027.6,000.0,037.5,030.7,16.8,0000.0,0003.90,0011.47,0002.98
2023-10-06 07:59:00,SystemResetWarning,0837.9,5.00,000.00,029.1,027.6,000.0,037.5,030.7,16.8,0000.0,0003.97,0011.47,0002.98
